Location: Eschentzwiller
(47.7125°N, 7.3981°E)
Time: 00:02:57
(UTC+00:00)

PSLV R/B - Pass Details

Date: 27 October 2020
Orbit: 567 x 599 km, 98.2° (Epoch: 26 November)

Event Time Altitude Azimuth Distance (km) Brightness Sun altitude
Rises 17:22:03 0° 19° (NNE) 2,844 7.2 -11.0°
Reaches altitude 10° 17:24:20 10° 27° (NNE) 1,933 6.3 -11.3°
Maximum altitude 17:28:19 43° 99° (E) 838 4.3 -12.0°
Drops below altitude 10° 17:32:15 10° 171° (S) 1,899 6.5 -12.7°
Sets 17:34:28 0° 178° (S) 2,788 7.5 -13.0°
